Location: Kra?nica
(53.4833°N, 14.6167°E)
Time: 21:51:59
(UTC+00:00)

Cosmos 2228 Rocket - Pass Details

Date: 23 May 2024
Orbit: 616 x 648 km, 82.5° (Epoch: 21 June)

Event Time Altitude Azimuth Distance (km) Brightness Sun altitude
Exits shadow 00:05:24 24° 208° (SSW) 1,328 4.2 -14.5°
Maximum altitude 00:08:02 63° 284° (WNW) 709 3.3 -14.4°
Drops below altitude 10° 00:12:32 10° 6° (N) 2,041 7.1 -14.2°
Sets 00:14:50 0° 10° (N) 2,960 8.4 -14.1°
